AirNav   Air Wisconsin Up To $57,000 Bonus
 
 1253 users online  

GA61 Kenley Field Airport
Brooks, Georgia, USA

GOING TO BROOKS?


FAA INFORMATION EFFECTIVE 01 DECEMBER 2022

Location

FAA Identifier: GA61
Lat/Long: 33-16-08.4310N 084-29-49.7330W
33-16.140517N 084-29.828883W
33.2690086,-84.4971481
(estimated)
Elevation: 780 ft. / 238 m (estimated)
Variation: 02W (1985)
From city: 3 miles SW of BROOKS, GA
Time zone: UTC -5 (UTC -4 during Daylight Saving Time)
Zip code: 30205

Airport Operations

Airport use: Private use. Permission required prior to landing
Activation date: 06/1971
Control tower: no
ARTCC: ATLANTA CENTER
FSS: MACON FLIGHT SERVICE STATION
Attendance: UNATNDD
Wind indicator: yes
Segmented circle: no

Airport Communications

UNICOM: 122.8
WX ASOS at FFC (7 nm NW): 118.525 (770-487-1610)
WX AWOS-3 at HMP (11 nm NE): 124.825 (770-707-1719)
WX AWOS-3 at 6A2 (11 nm E): 119.750 (770-227-3934)
WX AWOS-3PT at CCO (14 nm W): 118.975 (770-254-1617)

Nearby radio navigation aids

VOR radial/distance  VOR name  Freq  Var
PDKr200/37.7PEACHTREE VOR/DME116.6005W
LGCr069/38.0LAGRANGE VORTAC115.6001E

 
NDB name  Hdg/Dist  Freq  Var  ID
PECAT201/2.031605WFFC ..-. ..-. -.-.
COWETA COUNTY089/10.923403WEQQ . --.- --.-
CARROLLTON123/36.427804WGPQ --. .--. --.-

Airport Services

Airframe service: NONE
Powerplant service: NONE

Runway Information

Runway NE/SW

Dimensions: 2400 x 100 ft. / 732 x 30 m
Surface: turf
RUNWAY NE  RUNWAY SW
Traffic pattern: leftleft
Obstructions: trees, 700 ft. from runwaytrees, 1500 ft. from runway

Airport Ownership and Management from official FAA records

Ownership: Privately-owned
Owner: KENLEY PARK PROP OWNERS ASSN
125 KENLEY DR
BROOKS, GA 30205
Phone 770-377-7469
Manager: CHAIRMAN - BOARD OF DIRECTORS
KENLEY PARK PROP OWNERS ASSN, 125 KENLEY DR
BROOKS, GA 30205
Phone 770-377-7469

Airport Operational Statistics

Aircraft based on the field: 6
Single engine airplanes: 5
Multi engine airplanes: 1
    

Additional Remarks

FOR CD CTC ATLANTA APCH AT 678-364-6131.

Instrument Procedures

There are no published instrument procedures at GA61.

Some nearby airports with instrument procedures:

KFFC - Atlanta Regional Airport-Falcon Field (7 nm NW)
KHMP - Atlanta Speedway Airport (11 nm NE)
6A2 - Griffin-Spalding County Airport (11 nm E)
KCCO - Newnan Coweta County Airport (14 nm W)
KOPN - Thomaston-Upson County Airport (22 nm SE)
 
Loc | Ops | Rwys | IFR | FBO | Links
Com | Nav | Svcs | Stats | Notes
Area around GA61 (Kenley Field Airport)
 
Road maps at: MapQuest Bing Google
 
Aerial photo
No photo
 
Sectional chart

 
Airport distance calculator
Flying to Kenley Field Airport? Find the distance to fly.

From to GA61

Sunrise and sunset
Times for 09-Dec-2022
 Local
(UTC-5)
 Zulu
(UTC)
Morning civil twilight07:0412:04
Sunrise07:3112:31
Sunset17:3022:30
Evening civil twilight17:5722:57

Current date and time
Zulu (UTC)  10-Dec-2022 01:49:30
Local (UTC-5)  09-Dec-2022 20:49:30
 
METAR
KFFC 
6nm NW 
100131Z AUTO 00000KT 10SM SCT006 BKN020 OVC039 17/15 A3012 RMK AO2 RAE28 P0014 T01670150
KHMP 
11nm NE 
100135Z AUTO 07007KT 7SM -RA BR BKN022 BKN029 OVC042 15/14 A3016 RMK AO2 P0004 T01470141
K6A2 
11nm E 
100135Z AUTO 05003KT 5SM OVC004 15/14 A3012 RMK AO2
KCCO 
14nm W 
100135Z AUTO 11004KT 10SM DZ SCT020 BKN025 OVC030 17/16 A3011 RMK AO2 T01650160
TAF
KATL 
22nm N 
092201Z 0922/1024 06004KT 3SM -SHRA BR OVC004 FM100000 08006KT 3SM -DZ BR OVC004 FM100600 05004KT 1SM BR OVC004 FM101300 08004KT 1/2SM FG OVC004 FM101700 09005KT P6SM OVC015
NOTAMs
Click for the latest NOTAMs
NOTAMs are issued by the DoD/FAA and will open in a separate window not controlled by AirNav.

 

 
 

Would you like to see your business listed on this page?

 If your business provides an interesting product or service to pilots, flight crews, aircraft, or users of the Kenley Field Airport, you should consider listing it here.  To start the listing process, click on the button below
 
Add a business
 

Other Pages about Kenley Field Airport

Update a link
 
Copyright © AirNav, LLC. All rights reserved. Privacy Policy  Contact